Precipitable_Water
2.13 2.18 2.23 2.03 1.44 1.31 1.06 1.18 1.39 1.30 1.34 1.50 1.52 1.43 1.38 1.46 1.31 1.14 1.95 2.05 2.04 1.99 2.01 1.69 1.63 1.44 1.48 1.50 1.55 1.57 1.67 1.77 1.85 1.90 1.89 1.84 1.89 1.94 1.92 1.89 1.86 1.77 1.80 1.73 1.68 1.69 1.62 1.62 1.66
2.14 2.11 2.04 1.73 1.22 0.97 1.05 1.36 1.29 1.38 1.50 1.54 1.55 1.52 1.42 1.35 1.72 1.76 1.79 2.01 1.98 1.91 1.81 1.58 1.53 1.46 1.48 1.54 1.65 1.64 1.65 1.69 1.76 1.82 1.84 1.83 1.92 1.95 1.86 1.84 1.75 1.86 1.94 1.95 1.80 1.84 1.76 1.73 1.79
2.10 2.05 1.61 1.39 1.19 1.00 1.13 1.37 1.39 1.48 1.61 1.50 1.47 1.68 1.58 1.51 1.78 1.78 1.95 1.98 1.93 1.79 1.70 1.48 1.52 1.43 1.43 1.55 1.58 1.57 1.59 1.67 1.76 1.77 1.86 1.87 1.85 1.88 1.78 1.85 1.98 2.05 1.91 1.78 1.71 1.85 1.86 1.88 1.92
1.91 1.82 1.61 1.21 1.09 1.27 1.35 1.41 1.49 1.46 1.55 1.60 1.58 1.45 1.71 1.90 1.79 1.90 2.01 1.96 1.76 1.66 1.60 1.44 1.54 1.40 1.54 1.61 1.44 1.59 1.72 1.65 1.64 1.76 1.77 1.76 1.74 1.78 1.84 1.88 1.78 1.75 1.73 1.69 1.72 1.85 1.84 1.86 1.85
1.94 1.65 1.18 1.13 1.16 1.32 1.46 1.55 1.55 1.45 1.51 1.53 1.60 1.45 1.51 1.85 1.98 2.00 1.96 1.85 1.61 1.56 1.53 1.44 1.55 1.41 1.53 1.64 1.45 1.58 1.72 1.74 1.68 1.65 1.65 1.66 1.71 1.67 1.60 1.62 1.55 1.52 1.53 1.61 1.68 1.79 1.86 1.89 1.76
1.50 1.50 1.03 0.97 1.11 1.32 1.44 1.56 1.52 1.50 1.53 1.56 1.51 1.48 1.54 1.93 1.89 1.93 1.90 1.74 1.63 1.52 1.44 1.44 1.58 1.43 1.52 1.69 1.47 1.66 1.69 1.74 1.77 1.76 1.76 1.67 1.54 1.47 1.43 1.46 1.51 1.52 1.54 1.60 1.65 1.73 1.86 1.85 1.76
1.34 1.21 1.01 1.04 1.09 1.18 1.31 1.56 1.45 1.44 1.47 1.46 1.63 1.36 1.60 1.74 1.89 1.91 1.81 1.73 1.61 1.49 1.40 1.42 1.62 1.46 1.47 1.59 1.48 1.60 1.69 1.69 1.75 1.78 1.68 1.54 1.51 1.48 1.55 1.73 1.72 1.68 1.73 1.71 1.63 1.67 1.78 1.80 1.77
1.45 1.23 1.03 1.09 1.05 1.10 1.42 1.51 1.61 1.49 1.40 1.70 1.71 1.35 1.38 1.66 1.85 1.85 1.77 1.67 1.54 1.38 1.36 1.38 1.49 1.39 1.40 1.46 1.51 1.54 1.58 1.69 1.81 1.70 1.55 1.57 1.58 1.63 1.68 1.67 1.69 1.63 1.66 1.77 1.67 1.61 1.68 1.74 1.76
1.62 1.12 0.97 1.01 1.06 1.21 1.49 1.42 1.64 1.66 1.50 1.53 1.63 1.56 1.65 1.79 1.85 1.69 1.62 1.57 1.40 1.30 1.30 1.36 1.38 1.37 1.43 1.49 1.51 1.60 1.64 1.71 1.67 1.51 1.54 1.53 1.60 1.64 1.70 1.69 1.69 1.63 1.57 1.71 1.73 1.64 1.71 1.74 1.71
1.36 1.08 1.05 1.21 1.31 1.31 1.45 1.45 1.49 1.40 1.32 1.31 1.43 1.61 1.71 1.75 1.64 1.46 1.44 1.34 1.19 1.18 1.23 1.29 1.34 1.32 1.42 1.46 1.57 1.69 1.74 1.68 1.50 1.52 1.49 1.58 1.61 1.64 1.76 1.84 1.72 1.60 1.55 1.51 1.64 1.73 1.74 1.78 1.82
1.20 1.09 1.25 1.29 1.36 1.53 1.40 1.38 1.49 1.24 1.13 1.27 1.22 1.42 1.57 1.58 1.51 1.41 1.37 1.27 1.12 1.20 1.18 1.24 1.28 1.33 1.44 1.49 1.66 1.71 1.67 1.52 1.49 1.52 1.57 1.69 1.67 1.77 1.75 1.72 1.64 1.56 1.54 1.53 1.43 1.50 1.60 1.67 1.71
0.93 1.28 1.35 1.36 1.37 1.35 1.28 1.31 1.28 1.27 1.24 1.37 1.34 1.45 1.51 1.43 1.40 1.35 1.28 1.21 1.16 1.17 1.13 1.21 1.29 1.36 1.50 1.56 1.64 1.62 1.49 1.53 1.55 1.65 1.75 1.73 1.76 1.76 1.72 1.65 1.63 1.61 1.65 1.68 1.56 1.44 1.43 1.51 1.60
0.88 1.16 1.29 1.38 1.39 1.36 1.37 1.20 1.22 1.25 1.40 1.41 1.41 1.44 1.42 1.44 1.39 1.38 1.34 1.28 1.21 1.11 1.15 1.19 1.32 1.38 1.47 1.52 1.60 1.55 1.58 1.65 1.78 1.77 1.79 1.84 1.81 1.74 1.69 1.67 1.56 1.55 1.61 1.70 1.54 1.43 1.33 1.39 1.49
0.91 0.93 1.14 1.31 1.33 1.34 1.19 1.14 1.21 1.24 1.36 1.28 1.30 1.31 1.34 1.38 1.37 1.33 1.28 1.20 1.17 1.17 1.12 1.22 1.30 1.37 1.45 1.47 1.58 1.54 1.67 1.75 1.74 1.77 1.70 1.80 1.85 1.85 1.67 1.58 1.52 1.57 1.52 1.58 1.55 1.45 1.34 1.26 1.42
0.73 0.82 1.01 1.14 1.24 1.23 1.24 1.01 1.01 1.21 1.29 1.22 1.18 1.22 1.27 1.34 1.37 1.29 1.27 1.20 1.20 1.19 1.16 1.16 1.26 1.35 1.37 1.47 1.52 1.50 1.70 1.78 1.72 1.72 1.77 1.69 1.78 1.82 1.73 1.64 1.58 1.67 1.75 1.68 1.60 1.59 1.41 1.25 1.29
0.44 0.66 0.79 1.05 1.13 1.19 1.13 0.83 1.09 1.27 1.21 1.14 1.15 1.14 1.20 1.24 1.33 1.37 1.31 1.27 1.28 1.21 1.15 1.12 1.21 1.26 1.31 1.40 1.49 1.54 1.76 1.78 1.75 1.76 1.81 1.79 1.87 1.84 1.73 1.66 1.59 1.66 1.73 1.64 1.63 1.66 1.45 1.34 1.30
0.39 0.39 0.67 0.86 1.07 1.12 1.05 0.91 1.17 1.32 1.22 1.09 1.09 0.99 1.13 1.18 1.25 1.37 1.35 1.31 1.28 1.23 1.18 1.09 1.14 1.17 1.24 1.33 1.49 1.55 1.73 1.78 1.77 1.80 1.81 1.79 1.77 1.75 1.71 1.64 1.67 1.69 1.66 1.56 1.54 1.50 1.42 1.34 1.29
0.29 0.34 0.58 0.75 0.96 0.99 0.95 0.96 1.14 1.26 1.21 1.12 1.12 1.03 0.99 1.10 1.14 1.30 1.34 1.36 1.36 1.31 1.24 1.17 1.08 1.14 1.21 1.33 1.44 1.49 1.55 1.66 1.72 1.72 1.71 1.73 1.72 1.72 1.70 1.65 1.66 1.69 1.63 1.63 1.54 1.45 1.54 1.46 1.42
0.30 0.38 0.44 0.79 0.98 0.89 0.85 0.89 1.06 1.22 1.20 1.13 1.17 1.16 1.05 1.00 1.17 1.32 1.35 1.37 1.39 1.39 1.28 1.18 1.08 1.08 1.15 1.16 1.18 1.29 1.29 1.42 1.55 1.58 1.63 1.66 1.71 1.76 1.73 1.70 1.68 1.68 1.56 1.57 1.55 1.44 1.43 1.46 1.48
0.21 0.31 0.40 0.62 0.86 0.91 0.84 0.84 1.03 1.16 1.15 1.15 1.17 1.18 1.15 1.04 1.12 1.15 1.29 1.32 1.34 1.36 1.33 1.23 1.14 1.08 1.10 1.13 1.22 1.31 1.32 1.41 1.53 1.57 1.55 1.65 1.66 1.71 1.73 1.68 1.69 1.65 1.59 1.49 1.48 1.39 1.28 1.37 1.43
0.17 0.21 0.32 0.45 0.68 0.81 0.83 0.78 0.90 1.11 1.19 1.23 1.22 1.28 1.28 1.20 1.03 1.13 1.15 1.22 1.30 1.31 1.35 1.27 1.22 1.18 1.09 1.15 1.23 1.31 1.37 1.40 1.42 1.46 1.46 1.59 1.67 1.67 1.70 1.66 1.67 1.65 1.71 1.50 1.47 1.33 1.25 1.17 1.34
0.17 0.19 0.29 0.39 0.48 0.48 0.78 0.52 0.73 0.90 0.98 1.06 1.13 1.20 1.22 1.23 1.24 1.14 1.17 1.12 1.21 1.29 1.38 1.37 1.31 1.28 1.17 1.16 1.14 1.18 1.14 1.14 1.28 1.38 1.47 1.58 1.65 1.64 1.70 1.68 1.65 1.65 1.73 1.56 1.50 1.45 1.32 1.19 1.10
0.23 0.22 0.16 0.32 0.41 0.47 0.54 0.57 0.61 0.75 0.83 0.91 1.05 1.16 1.23 1.30 1.32 1.24 1.12 1.08 1.13 1.31 1.32 1.34 1.36 1.36 1.22 1.16 1.18 1.22 1.21 1.24 1.31 1.36 1.40 1.50 1.54 1.58 1.62 1.64 1.64 1.64 1.64 1.67 1.53 1.49 1.43 1.33 1.18
0.33 0.28 0.23 0.16 0.29 0.31 0.42 0.47 0.47 0.59 0.68 0.86 1.05 1.13 1.19 1.29 1.38 1.44 1.31 1.19 1.10 1.22 1.32 1.33 1.34 1.35 1.28 1.23 1.24 1.23 1.23 1.25 1.28 1.29 1.26 1.34 1.42 1.47 1.52 1.58 1.59 1.62 1.61 1.67 1.64 1.55 1.50 1.37 1.33
0.35 0.28 0.20 0.16 0.12 0.16 0.35 0.42 0.42 0.57 0.72 0.87 0.90 1.03 1.12 1.27 1.34 1.39 1.38 1.16 1.07 1.05 1.15 1.26 1.30 1.28 1.29 1.26 1.24 1.27 1.26 1.28 1.26 1.28 1.24 1.22 1.26 1.32 1.34 1.43 1.49 1.51 1.54 1.57 1.63 1.56 1.52 1.44 1.30
0.33 0.33 0.21 0.16 0.11 0.10 0.25 0.28 0.36 0.58 0.64 0.82 0.93 1.00 1.11 1.20 1.31 1.34 1.38 1.33 1.12 1.04 1.01 1.10 1.19 1.22 1.23 1.24 1.25 1.29 1.32 1.29 1.28 1.30 1.27 1.22 1.21 1.23 1.32 1.33 1.41 1.45 1.49 1.50 1.55 1.54 1.53 1.49 1.36
0.38 0.30 0.33 0.25 0.25 0.16 0.14 0.25 0.39 0.51 0.58 0.71 0.79 0.95 0.99 1.12 1.21 1.25 1.34 1.41 1.34 1.20 1.05 1.01 1.06 1.14 1.20 1.19 1.23 1.27 1.32 1.30 1.25 1.26 1.29 1.25 1.27 1.26 1.24 1.21 1.27 1.37 1.43 1.47 1.48 1.49 1.45 1.42 1.45
0.41 0.42 0.34 0.33 0.18 0.14 0.18 0.17 0.17 0.31 0.45 0.58 0.73 0.81 0.93 1.07 1.13 1.21 1.26 1.32 1.40 1.32 1.29 1.19 1.08 1.06 1.12 1.19 1.20 1.23 1.25 1.28 1.27 1.29 1.24 1.24 1.25 1.26 1.16 1.12 1.24 1.32 1.35 1.43 1.43 1.43 1.52 1.46 1.46
0.39 0.39 0.40 0.39 0.30 0.18 0.16 0.19 0.27 0.27 0.38 0.47 0.61 0.75 0.88 0.98 1.03 1.12 1.19 1.23 1.32 1.41 1.34 1.29 1.22 1.12 1.16 1.20 1.20 1.20 1.22 1.28 1.31 1.29 1.28 1.25 1.27 1.28 1.19 1.11 1.17 1.27 1.30 1.32 1.33 1.31 1.40 1.42 1.45
0.47 0.44 0.40 0.35 0.31 0.31 0.27 0.21 0.32 0.33 0.34 0.42 0.54 0.74 0.89 0.94 0.99 1.08 1.17 1.27 1.30 1.33 1.38 1.31 1.28 1.22 1.18 1.21 1.22 1.21 1.24 1.26 1.27 1.26 1.27 1.29 1.23 1.28 1.23 1.18 1.12 1.19 1.23 1.27 1.26 1.21 1.24 1.31 1.33
Wind_Speed
7 7 5 3 1 2 2 1 6 9 8 7 12 7 8 5 5 5 17 17 19 18 16 15 14 14 14 14 14 14 14 14 14 13 13 13 12 12 11 10 9 8 8 7 7 7 7 8 8
7 7 3 1 1 4 3 3 7 9 7 12 9 8 6 6 6 9 19 19 19 17 16 15 14 14 14 14 14 14 14 14 13 13 13 12 12 11 10 9 8 7 7 7 8 8 8 9 9
7 5 2 2 2 3 2 3 7 11 10 11 7 6 5 5 7 16 19 20 19 16 15 15 14 14 14 14 13 14 14 13 13 13 12 12 11 10 10 9 9 8 8 8 9 9 9 10 10
5 3 3 3 5 3 4 4 9 11 10 8 8 5 5 4 12 16 22 20 18 16 15 15 14 14 14 13 14 14 14 14 13 13 13 12 12 12 11 11 10 10 9 9 9 9 10 11 11
4 2 2 4 6 4 4 5 7 10 8 9 7 5 5 7 11 22 21 20 18 16 15 15 14 14 14 13 14 14 14 14 14 13 14 14 14 14 13 13 12 11 10 9 10 11 12 13 13
3 3 4 3 5 4 5 6 7 10 8 9 7 7 5 9 18 22 21 20 18 16 16 15 14 14 14 13 14 14 14 14 14 14 14 14 14 14 13 13 13 12 12 12 13 13 14 13 14
5 4 3 2 4 4 6 6 9 9 9 7 9 6 6 14 21 20 20 19 17 16 16 15 14 14 13 13 14 13 13 14 14 14 14 14 14 13 13 13 14 14 14 14 14 14 14 13 13
5 6 5 4 4 4 7 7 7 7 6 9 9 6 9 17 22 21 20 18 17 16 16 15 14 14 14 13 14 14 14 14 14 13 13 13 13 12 13 13 14 15 15 16 15 14 13 13 13
6 5 6 6 4 3 8 8 8 7 9 6 9 7 12 21 22 21 20 19 18 17 16 16 15 15 14 14 14 14 14 14 13 13 12 12 12 12 12 12 13 14 14 14 14 14 13 13 13
10 4 4 4 5 6 9 8 10 7 9 5 6 8 17 24 22 22 21 20 19 18 17 16 16 15 15 15 15 14 14 13 13 12 12 11 11 11 11 11 11 12 12 12 12 12 11 11 11
12 9 6 4 5 9 8 9 8 9 8 7 10 13 20 24 23 22 21 20 20 19 18 17 17 16 16 16 15 14 13 13 13 12 11 10 10 9 9 9 9 9 9 9 9 9 8 8 8
12 13 10 5 9 9 8 8 7 8 4 7 11 15 22 24 23 22 22 20 20 19 18 18 18 17 17 16 15 14 13 13 12 11 9 9 9 8 8 7 6 6 6 7 7 7 6 5 5
18 13 12 11 10 8 8 8 7 8 5 8 11 17 23 23 22 21 21 20 20 20 19 19 19 18 17 16 15 14 13 12 10 10 8 8 8 7 7 6 6 6 6 6 7 6 6 6 6
13 19 16 12 12 9 9 8 8 6 9 11 14 18 22 23 23 21 22 21 21 20 20 20 19 19 18 16 15 14 12 12 10 10 9 8 7 7 7 6 6 6 6 6 5 5 6 6 6
18 11 13 17 15 12 11 11 10 10 11 12 15 18 21 22 23 22 22 21 22 21 20 21 20 20 18 17 15 14 13 12 11 10 9 8 8 7 6 6 6 6 6 6 6 6 6 7 7
17 17 14 14 18 14 14 10 10 12 13 14 15 17 20 22 23 22 22 22 22 22 21 22 21 20 19 17 16 15 13 12 12 11 9 9 8 7 7 7 7 7 7 7 7 6 6 6 6
18 17 21 15 16 15 17 10 12 13 14 14 15 18 20 22 23 22 23 23 23 22 22 22 22 21 20 18 17 15 14 13 11 10 8 8 8 7 7 7 8 8 8 8 8 8 8 8 8
21 21 19 22 19 18 17 15 14 15 15 15 16 17 19 21 24 22 24 24 23 23 23 23 23 22 21 19 18 16 15 13 11 10 9 8 8 8 8 7 8 8 8 8 8 7 7 7 7
22 20 24 21 20 19 20 19 18 18 17 17 16 17 18 20 23 23 23 25 25 25 25 25 24 23 22 20 19 18 16 14 12 11 10 9 8 8 7 7 7 7 7 7 7 7 7 7 7
27 21 24 25 19 22 19 22 21 22 22 21 20 19 19 20 21 23 25 26 27 26 27 27 26 25 24 22 20 18 16 15 13 12 11 10 9 8 7 6 6 6 6 6 6 6 7 7 6
29 30 23 22 22 24 20 25 24 23 23 21 21 20 20 21 22 23 24 27 29 28 28 28 28 27 26 24 22 20 18 16 15 13 12 11 10 8 7 6 5 5 5 5 5 5 6 6 6
31 28 28 25 21 26 27 24 26 26 27 26 24 22 22 23 22 22 23 26 30 30 29 30 29 28 28 26 24 23 20 18 17 15 13 11 11 9 8 6 5 5 4 4 4 5 5 5 6
28 26 30 31 28 25 27 25 29 25 28 29 27 26 25 24 25 24 24 25 30 31 31 31 30 30 29 28 27 24 22 20 18 16 15 13 12 10 8 7 6 5 4 4 3 3 3 3 4
27 23 27 30 31 33 35 28 29 28 28 28 27 27 26 25 26 24 24 25 28 32 32 32 32 31 31 30 29 27 24 22 19 18 17 15 13 11 10 8 7 6 5 4 3 2 2 2 3
33 30 24 25 30 36 34 34 32 29 28 28 27 27 26 26 26 26 24 25 26 30 33 33 33 33 33 32 31 29 27 24 22 20 18 17 15 14 12 11 9 7 7 5 5 4 3 3 4
37 35 27 29 30 32 34 32 33 38 28 27 28 27 25 26 26 26 27 26 26 28 32 33 34 34 34 34 33 31 28 26 24 22 20 19 17 16 14 13 11 10 9 7 6 5 5 4 4
34 41 37 26 24 27 32 38 29 32 35 34 29 26 25 26 26 27 28 29 27 28 30 32 33 34 35 34 34 32 30 28 26 24 23 20 19 17 16 15 13 12 11 10 8 7 6 6 6
38 35 35 34 33 29 26 34 32 35 33 34 34 31 26 25 27 26 27 29 29 29 31 31 33 34 35 35 34 33 31 30 28 26 24 23 20 18 17 16 15 14 13 12 11 10 9 8 7
38 35 36 35 35 32 28 27 30 34 35 33 33 33 30 27 28 27 27 28 29 31 31 32 33 34 34 34 34 34 32 31 29 28 26 24 23 20 19 18 17 16 15 14 13 13 12 11 10
32 36 42 34 38 38 30 31 20 27 32 35 36 31 31 28 28 27 27 28 29 31 32 32 33 34 35 35 34 34 33 32 30 29 27 26 25 23 21 19 19 17 16 15 15 15 14 14 14
Wind_Direction
150 148 144 140 177 174 130 125 136 147 146 141 145 142 147 132 139 126 149 145 143 140 137 134 129 124 122 120 117 117 117 116 114 112 112 113 115 117 114 112 107 104 95 89 89 89 93 98 102
156 155 156 160 138 151 122 111 180 155 144 140 132 130 137 137 139 134 151 150 146 141 138 136 131 127 124 121 119 119 119 117 115 112 111 111 113 114 110 109 106 106 95 89 91 93 94 98 99
162 169 209 214 187 167 153 106 141 151 154 155 142 123 138 139 152 148 154 151 148 143 141 138 133 130 127 124 121 120 118 117 115 113 110 109 110 111 106 104 101 99 92 93 95 93 94 95 98
167 211 225 217 212 189 169 127 136 141 147 163 154 129 138 165 152 158 155 153 150 146 143 141 137 134 130 125 124 123 118 118 115 112 110 107 105 104 101 99 97 94 90 94 99 98 97 96 96
185 224 220 245 199 186 195 177 169 162 153 157 164 152 139 147 156 155 156 155 152 148 146 144 140 138 134 129 128 126 120 119 115 112 108 107 104 101 97 94 91 89 87 90 99 103 100 98 98
187 167 149 130 151 168 173 161 178 167 160 163 161 156 157 157 155 157 157 157 155 151 149 147 144 141 138 132 132 128 124 120 116 112 110 107 104 100 96 91 87 84 84 92 101 105 102 100 96
192 184 177 196 171 173 164 161 161 167 165 173 164 160 160 158 159 159 159 159 158 155 152 150 147 144 141 135 135 132 127 123 119 115 112 107 104 100 97 94 87 83 84 91 102 105 101 98 98
202 209 206 202 200 210 189 183 165 164 164 162 174 181 176 168 164 161 161 162 161 159 157 154 150 148 144 140 137 133 130 127 124 119 115 109 105 102 99 94 89 85 84 90 99 104 100 97 96
192 197 217 228 216 194 174 178 181 156 155 171 182 176 172 166 165 165 164 164 164 162 160 157 154 151 147 143 140 136 133 130 127 122 117 112 106 104 102 97 93 88 87 92 96 100 101 96 94
202 219 206 203 189 190 174 178 166 166 162 161 170 165 164 167 167 168 167 167 166 164 163 161 158 155 150 147 143 138 136 133 130 125 121 114 109 107 106 101 95 90 90 92 97 99 100 99 94
213 221 211 207 186 161 160 160 163 164 185 186 171 166 166 169 169 170 170 170 168 166 165 164 161 158 153 150 146 142 139 136 132 128 124 119 112 110 108 106 98 90 94 90 98 102 101 100 95
221 221 227 208 179 177 177 172 177 182 181 184 177 170 168 170 172 172 171 171 170 169 168 166 164 160 157 153 150 147 143 139 136 131 125 125 119 114 112 102 98 96 100 95 96 101 100 99 106
221 222 222 216 204 206 194 196 186 199 192 173 170 170 173 173 173 173 173 173 173 173 171 169 167 164 161 158 155 152 151 148 143 140 131 129 123 118 115 100 97 95 101 105 96 96 96 97 108
220 227 229 217 212 218 208 206 202 190 173 163 166 170 174 176 176 175 177 177 177 175 174 172 171 168 166 163 160 157 154 156 149 140 134 127 128 121 113 102 102 100 97 106 96 97 95 104 105
223 228 224 219 216 215 210 213 207 182 174 168 171 172 176 180 180 182 181 180 179 178 176 175 173 172 170 168 165 160 156 153 150 144 138 131 125 117 110 101 102 102 98 99 100 101 104 107 102
219 221 217 207 208 212 206 210 191 182 182 180 181 181 181 184 186 185 185 184 183 181 180 178 177 176 174 172 169 166 162 155 151 146 137 135 126 116 112 108 100 107 103 92 98 99 106 113 109
217 219 215 215 205 204 204 206 192 190 187 184 184 185 186 188 190 190 189 187 187 186 184 182 181 181 180 178 175 172 169 165 162 157 149 140 133 122 116 111 107 106 104 95 93 93 102 112 111
220 219 217 212 205 206 207 214 198 194 193 188 186 185 189 193 193 193 193 192 190 190 189 187 186 186 184 182 180 178 177 175 172 168 160 152 141 130 122 114 113 109 101 95 91 91 97 113 110
227 223 222 212 212 214 220 220 209 201 197 193 193 192 194 196 197 198 197 196 195 195 193 192 191 190 188 187 185 183 183 181 177 172 166 159 152 144 132 122 121 115 106 95 86 89 97 109 115
228 227 223 224 218 218 219 220 214 207 207 204 202 201 201 198 198 201 202 200 199 199 197 196 195 194 193 191 189 188 186 185 181 179 176 169 163 154 145 134 126 128 112 99 96 94 97 101 117
227 227 222 224 225 225 223 227 217 216 217 214 213 214 210 206 202 201 203 204 202 201 200 199 198 198 196 195 193 193 191 189 187 183 179 178 174 168 161 151 141 138 123 113 102 95 100 105 112
227 225 226 227 229 224 220 228 219 219 218 217 215 212 211 207 205 205 206 206 205 204 202 202 202 201 200 198 198 196 195 193 192 190 187 182 181 181 178 173 166 161 150 130 113 105 101 111 119
228 227 226 228 231 234 224 227 225 218 218 217 216 215 214 213 212 212 211 209 207 205 205 203 203 202 202 201 200 199 199 199 198 198 197 196 194 193 191 190 187 183 181 164 147 128 126 126 135
222 223 225 226 226 232 224 227 225 218 217 216 216 216 218 217 215 216 215 212 209 208 206 205 204 204 204 203 203 203 204 203 203 203 204 204 204 203 203 203 202 201 202 201 201 186 174 174 166
218 214 217 221 220 229 223 229 224 220 216 214 212 215 217 215 216 213 210 209 207 206 206 206 206 206 205 205 205 207 207 208 209 209 209 209 210 210 211 211 212 215 216 216 215 215 212 206 196
216 214 216 219 222 228 223 230 221 223 219 215 218 218 219 216 215 214 212 210 207 206 205 206 206 206 206 207 208 209 211 212 213 214 214 215 216 218 218 219 221 222 222 222 220 221 220 215 204
214 218 220 233 229 231 226 231 232 222 222 222 218 217 217 216 216 215 214 212 210 208 206 205 206 207 208 208 209 211 212 213 214 215 216 219 219 220 222 223 224 223 224 225 225 224 222 220 211
222 218 215 221 227 226 224 224 224 216 217 218 219 218 218 217 215 216 215 214 212 210 208 207 207 207 208 209 210 212 213 214 215 216 218 219 221 222 222 222 223 225 227 229 231 230 230 226 221
216 216 218 222 225 227 232 229 223 221 217 218 218 219 220 219 217 217 217 214 213 211 210 209 209 208 209 209 210 211 213 214 216 218 219 221 222 223 223 224 225 229 231 233 234 235 233 230 228
223 223 218 221 220 226 233 231 220 217 216 217 218 218 218 217 214 216 216 215 214 212 211 211 211 211 210 210 211 212 214 215 216 218 220 221 222 224 225 227 229 231 233 234 235 235 234 233 232